Regional Weather Roundup
Issued by NWS Cleveland, OH

Home | Current Version | Previous Version | Text Only | Print | Product List | Glossary Off
Versions: 1 2 3 4 5 6 7 8 9 10 11 12 13 14 15 16 17 18 19 20 21 22 23 24 25 26 27 28 29 30 31 32 33 34 35 36 37 38 39 40 41 42 43 44 45 46 47 48 49 50

000
ASUS41 KCLE 261010
RWRCLE
OHIO REGIONAL WEATHER ROUNDUP
NATIONAL WEATHER SERVICE CLEVELAND, OH
600 AM EDT FRI AUG 26 2016

NOTE: "FAIR" INDICATES FEW OR NO CLOUDS BELOW 12,000 FEET WITH NO
SIGNIFICANT WEATHER AND/OR OBSTRUCTIONS TO VISIBILITY.

OHZ001>008-015>018-024>027-034-035-043-044-261100-
   NORTHWEST OHIO

CITY           SKY/WX    TMP DP  RH WIND       PRES   REMARKS
DEFIANCE       FAIR      67  64  90 CALM      30.12R
FINDLAY        FAIR      68  63  84 CALM      30.11R
TOLEDO EXPRESS FAIR      65  63  93 NW3       30.10S
TOLEDO EXEC    FAIR      67  63  87 CALM      30.11S
LIMA           FAIR      67  67 100 CALM      30.12S FOG
$$

OHZ009>014-019>023-028>033-038-089-261100-
   NORTHEAST OHIO

CITY           SKY/WX    TMP DP  RH WIND       PRES   REMARKS
CLE-HOPKINS    FAIR      71  67  87 W5        30.11S
CLE-LAKEFRONT  FAIR      75  66  73 NW12      30.08R
CUY CO. ARPT   NOT AVBL
LORAIN-ELYRIA  FAIR      68  66  93 NW5       30.11R
ASHTABULA      FAIR      70  70 100 NW3       30.09R
AKRON-CANTON   FAIR      71  67  87 W5        30.11R
WOOSTER        FAIR      66  65  96 CALM      30.11F
MANSFIELD      CLOUDY    70  70 100 SW3       30.12S
YOUNGSTOWN     FAIR      70  68  93 W6        30.10R
$$

OHZ042-051>053-060>062-070>072-077>081-261100-
  SOUTHWEST OHIO

CITY           SKY/WX    TMP DP  RH WIND       PRES   REMARKS
CINC-COVINGTON FAIR      72  71  97 CALM      30.11S
CINC-LUNKEN    NOT AVBL
HAMILTON       FAIR      70  68  93 CALM      30.11S FOG
DAYTON         MOCLDY    72  71  97 CALM      30.13R
WRIGHT-PAT AFB FAIR      73  73 100 CALM      30.11S
DAYTON GENERAL FAIR      72  70  93 E3        30.11S
WILMINGTON     FAIR      69  69 100 CALM      30.12S FOG
$$

OHZ036-037-039>041-045>050-054>059-063>069-073>076-082>088-261100-
  CENTRAL AND SOUTHEAST OHIO

CITY           SKY/WX    TMP DP  RH WIND       PRES   REMARKS
COLUMBUS       FAIR      72  71  97 CALM      30.10S
OSU AIRPORT    FAIR      71  71 100 CALM      30.11S
BOLTON FIELD   FAIR      70  70 100 CALM      30.11F FOG
RICKENBACK AFB FAIR      71  71  99 CALM      30.10F
NEWARK         FAIR      68  67  96 CALM      30.10F
MARION         MOCLDY    68  66  93 CALM      30.12S
LANCASTER      MOCLDY    71  70  96 CALM      30.11F
ZANESVILLE     FOG       70  69  97 S3        30.11S VSB 3/4
NEW PHILLY     FAIR      72  68  87 CALM      30.11R
$$




USA.gov is the U.S. government's official web portal to all federal, state and local government web resources and services.